Location: Bushey
(51.6333°N, 0.3667°W)
Time: 21:02:07
(UTC+00:00)

Terra - Pass Details

Date: 03 March 2021
Orbit: 701 x 703 km, 98.2° (Epoch: 16 April)

Event Time Altitude Azimuth Distance (km) Brightness Sun altitude
Exits shadow 21:21:34 21° 2° (N) 1,548 3.8 -32.7°
Drops below altitude 10° 21:23:16 10° 354° (N) 2,185 4.8 -32.9°
Sets 21:25:35 0° 349° (N) 3,108 5.8 -33.2°
